Flag for Greece Weather past 2 weeks in Rhodes, Rhodes, Greece

63 °F

Passing clouds.

Feels Like: 63 °F
Forecast: 62 / 66 °F
Wind: 3 mph from North

Location: Rhodes Airport

Current Time: Nov 25, 2015 at 6:14:34 AM

Latest Report: Nov 25, 2015 at 4:50 AM

Visibility: N/A

Pressure: 30.07 "Hg

Humidity: 88%

Dew point: 59 °F

Location of RhodesLocation

Historic Weather in Rhodes — Graph


Rhodes temperature yesterday

Maximum temperature yesterday: 72 °F (at 12:50 PM)
Minimum temperature yesterday: 61 °F (at 1:50 AM)
Average temperature yesterday: 66 °F

Past Weeks' High & Low Weather Summary

High75 °F (Nov 12, 1:50 PM)94% (Nov 13, 4:50 AM)30.24 "Hg (Nov 13, 4:50 AM)
Low59 °F (Nov 19, 2:50 AM)38% (Nov 17, 1:50 PM)29.77 "Hg (Nov 16, 2:50 PM)
Average67 °F70%30.05 "Hg
* Reported Nov 10 4:50 AM — Nov 25 4:50 AM, Rhodes, Weather by CustomWeather, © 2015

Note: Actual official high and low records may vary slightly from our data, if they occured in-between our weather recording intervals... More about our weather records


Rhodes weather history for previous 24 hours

Time TempWeatherWind HumidityBarometerVisibility
4:50 AM
Wed, Nov 25
63 °FPassing clouds.3 mph88%30.07 "HgN/A
4:20 AM61 °FPassing clouds.No wind88%30.07 "HgN/A
3:50 AM61 °FPassing clouds.3 mph88%30.07 "HgN/A
3:20 AM61 °FPassing clouds.No wind88%30.09 "HgN/A
2:50 AM61 °FPassing clouds.3 mph88%30.09 "HgN/A
2:20 AM61 °FPassing clouds.1 mph88%30.09 "HgN/A
1:50 AM61 °FPassing clouds.1 mph88%30.09 "HgN/A
12:50 AM63 °FPassing clouds.2 mph88%30.12 "HgN/A
12:20 AM63 °FPassing clouds.2 mph88%30.12 "HgN/A
11:50 PM
Tue, Nov 24
63 °FPassing clouds.3 mph88%30.12 "HgN/A
10:50 PM63 °FPassing clouds.3 mph88%30.12 "HgN/A
10:20 PM64 °FPassing clouds.3 mph88%30.15 "HgN/A
9:50 PM64 °FPassing clouds.3 mph88%30.15 "HgN/A
9:20 PM64 °FPassing clouds.3 mph88%30.15 "HgN/A
8:50 PM64 °FPassing clouds.3 mph88%30.15 "HgN/A
8:20 PM64 °FPassing clouds.3 mph78%30.12 "HgN/A
7:50 PM64 °FPassing clouds.3 mph78%30.12 "HgN/A
7:20 PM66 °FPassing clouds.No wind78%30.15 "HgN/A
6:50 PM66 °FPassing clouds.No wind78%30.15 "HgN/A
6:20 PM66 °FPassing clouds.3 mph73%30.12 "HgN/A
5:50 PM66 °FPassing clouds.3 mph73%30.12 "HgN/A
5:20 PM68 °FPassing clouds.5 mph73%30.15 "HgN/A
4:50 PM68 °FPassing clouds.5 mph73%30.15 "HgN/A
4:20 PM70 °FPassing clouds.8 mph73%30.15 "HgN/A
3:50 PM70 °FPassing clouds.8 mph73%30.15 "HgN/A
3:20 PM72 °FPassing clouds.6 mph65%30.15 "HgN/A
2:50 PM72 °FPartly sunny.6 mph65%30.15 "HgN/A
2:20 PM72 °FPassing clouds.5 mph65%30.15 "HgN/A
1:50 PM72 °FPassing clouds.5 mph65%30.15 "HgN/A
1:20 PM72 °FPassing clouds.5 mph65%30.15 "HgN/A
12:50 PM72 °FPartly sunny.3 mph65%30.15 "HgN/A
12:20 PM70 °FMild.5 mph73%30.18 "HgN/A
11:50 AM70 °FSunny.5 mph73%30.18 "Hg10 mi
11:20 AM70 °FPassing clouds.6 mph73%30.21 "HgN/A
10:50 AM70 °FPartly sunny.5 mph73%30.21 "HgN/A
10:20 AM68 °FPassing clouds.6 mph83%30.24 "HgN/A
9:50 AM68 °FPassing clouds.6 mph83%30.24 "HgN/A
9:20 AM66 °FPassing clouds.5 mph88%30.24 "HgN/A
8:50 AM66 °FPassing clouds.3 mph88%30.24 "HgN/A
7:50 AM63 °FPassing clouds.No wind94%30.21 "HgN/A
7:20 AM63 °FPassing clouds.2 mph88%30.21 "HgN/A
6:50 AM63 °FPassing clouds.3 mph88%30.21 "HgN/A
6:20 AM63 °FPassing clouds.3 mph88%30.18 "HgN/A
Weather by CustomWeather, © 2015

See weather overviewHow to use our weather pages